Weather History for Port Angeles, WA

Change the Weather History Date:

Monday, July 29, 2013

  Actual Average Record
Temperature  
Mean Temperature 58 °F -  
Max Temperature 64 °F 69 °F 87 °F (2003)
Min Temperature 51 °F 51 °F 42 °F (1986)
Degree Days  
Heating Degree Days 8    
Growing Degree Days 8 (Base 50)    
Moisture  
Dew Point 51 °F    
Average Humidity 87    
Maximum Humidity 97    
Minimum Humidity 65    
Precipitation  
Precipitation 0.00 in - - ()
Sea Level Pressure  
Sea Level Pressure 30.00 in    
Wind  
Wind Speed 5 mph (WNW)    
Max Wind Speed 9 mph    
Max Gust Speed -    
Visibility 8 miles    
Events      
Averages and records for this station are not official NWS values.
T = Trace of Precipitation, MM = Missing Value Source: NWS Daily Summary

Daily Weather History Graph

Daily Weather History Graph

Search for Another Location

Airport:

Trip Planner

Search our weather history database for the weather conditions in past years. The results will help you decide how hot, cold, wet, or windy it might be!

Date:

Astronomy

Jul. 29, 2013 Rise Set
Actual Time 5:46 AM PDT 8:53 PM PDT
Civil Twilight 5:09 AM PDT 9:30 PM PDT
Nautical Twilight 4:21 AM PDT 10:18 PM PDT
Astronomical Twilight 3:20 AM PDT 11:17 PM PDT
Moon No Moon Rise 2:15 PM PDT (7/29)
Length of Visible Light 16h 21m
Length of Day
15h 07m
Waning Gibbous, 50% of the Moon is Illuminated
Jul 29
Waning Gibbous
Aug 6
New
Aug 14
First Quarter
Aug 20
Full
Aug 28
Last Quarter

Hourly Weather History & Observations

Time (PDT) Temp. Dew Point Humidity Pressure Visibility Wind Dir Wind Speed Gust Speed Precip Events Conditions
12:53 AM 52.0 °F 50.0 °F 93% 29.99 in 10.0 mi West 6.9 mph - N/A   Scattered Clouds
1:07 AM 53.1 °F 51.1 °F 93% 29.99 in 10.0 mi West 5.8 mph - N/A   Mostly Cloudy
1:53 AM 51.1 °F 48.9 °F 92% 29.98 in 9.0 mi WNW 4.6 mph - N/A   Scattered Clouds
2:40 AM 51.1 °F 50.0 °F 96% 29.98 in 7.0 mi WSW 4.6 mph - N/A   Mostly Cloudy
2:53 AM 51.1 °F 50.0 °F 96% 29.98 in 7.0 mi West 3.5 mph - N/A   Overcast
3:53 AM 52.0 °F 51.1 °F 97% 29.99 in 8.0 mi West 3.5 mph - N/A   Overcast
4:53 AM 53.1 °F 51.1 °F 93% 29.99 in 7.0 mi Calm Calm - N/A   Overcast
5:53 AM 52.0 °F 51.1 °F 97% 30.00 in 6.0 mi West 3.5 mph - N/A   Overcast
6:53 AM 52.0 °F 51.1 °F 97% 30.00 in 3.0 mi Calm Calm - N/A   Overcast
7:03 AM 52.0 °F 51.1 °F 97% 30.00 in 2.5 mi WNW 3.5 mph - N/A   Overcast
7:20 AM 52.0 °F 51.1 °F 97% 30.00 in 4.0 mi Calm Calm - N/A   Overcast
7:53 AM 53.1 °F 51.1 °F 93% 30.01 in 6.0 mi Calm Calm - N/A   Overcast
8:53 AM 54.0 °F 51.1 °F 90% 30.02 in 10.0 mi Calm Calm - N/A   Overcast
9:21 AM 55.0 °F 51.1 °F 86% 30.02 in 10.0 mi Calm Calm - N/A   Overcast
9:53 AM 55.0 °F 51.1 °F 86% 30.02 in 10.0 mi North 4.6 mph - N/A   Overcast
10:53 AM 57.0 °F 52.0 °F 83% 30.02 in 10.0 mi Variable 4.6 mph - N/A   Mostly Cloudy
11:07 AM 57.0 °F 51.1 °F 81% 30.01 in 10.0 mi North 6.9 mph - N/A   Scattered Clouds
11:53 AM 57.0 °F 52.0 °F 83% 30.01 in 10.0 mi Variable 5.8 mph - N/A   Clear
12:53 PM 61.0 °F 52.0 °F 72% 30.01 in 10.0 mi Variable 5.8 mph - N/A   Clear
1:53 PM 63.0 °F 53.1 °F 70% 30.01 in 10.0 mi North 6.9 mph - N/A   Partly Cloudy
2:53 PM 63.0 °F 53.1 °F 70% 30.00 in 10.0 mi NNW 8.1 mph - N/A   Clear
3:53 PM 63.0 °F 53.1 °F 70% 29.99 in 10.0 mi WNW 8.1 mph - N/A   Clear
4:53 PM 64.0 °F 53.1 °F 67% 29.99 in 10.0 mi NW 8.1 mph - N/A   Clear
5:53 PM 64.9 °F 53.1 °F 65% 29.98 in 10.0 mi NW 6.9 mph - N/A   Clear
6:53 PM 64.0 °F 53.1 °F 67% 29.97 in 10.0 mi NW 5.8 mph - N/A   Clear
7:53 PM 62.1 °F 53.1 °F 72% 29.97 in 10.0 mi NW 5.8 mph - N/A   Clear
8:53 PM 53.1 °F 50.0 °F 89% 29.98 in 10.0 mi NW 4.6 mph - N/A   Clear
9:53 PM 51.1 °F 48.9 °F 92% 30.00 in 10.0 mi WNW 4.6 mph - N/A   Clear
10:18 PM 51.1 °F 48.9 °F 92% 30.00 in 10.0 mi WNW 6.9 mph - N/A   Scattered Clouds
10:27 PM 52.0 °F 50.0 °F 93% 30.00 in 10.0 mi West 6.9 mph - N/A   Mostly Cloudy
10:53 PM 52.0 °F 51.1 °F 97% 30.01 in 2.5 mi West 9.2 mph - N/A   Overcast
11:15 PM 52.0 °F 51.1 °F 97% 30.02 in 2.0 mi WNW 5.8 mph - N/A   Overcast
11:22 PM 52.0 °F 51.1 °F 97% 30.02 in 1.8 mi West 4.6 mph - N/A   Overcast
11:53 PM 52.0 °F 51.1 °F 97% 30.03 in 1.0 mi WNW 5.8 mph - N/A   Overcast